Location: Newark
(45.9456°N, 15.4064°E)
Time: 10:05:28
(UTC+00:00)

Transit 2A - Visible Passes

Search period start: 28 January 2020 00:00
Search period end: 07 February 2020 00:00
Orbit: 601 x 958 km, 66.7° (Epoch: 27 January)

Date Brightness Start Highest point End Pass type
(mag) Time Alt. Az. Time Alt. Az. Time Alt. Az.
28 Jan 8.4 03:19:38 13° SSE 03:19:38 13° SSE 03:20:10 10° SSE visible
28 Jan 5.5 17:53:02 10° SSW 17:57:20 55° ESE 17:57:26 55° ESE visible
28 Jan 8.6 19:37:26 10° W 19:37:58 12° W 19:37:58 12° W visible
29 Jan 6.1 17:19:17 10° S 17:23:18 36° ESE 17:24:58 26° ENE visible
29 Jan 7.5 19:02:40 10° WSW 19:05:31 26° WNW 19:05:31 26° WNW visible
30 Jan 6.7 16:45:48 10° SSE 16:49:19 24° ESE 16:52:26 12° ENE visible
30 Jan 6.6 18:28:05 10° WSW 18:32:13 40° NW 18:32:58 37° NNW visible
31 Jan 6.0 17:53:42 10° SW 17:58:00 59° NW 18:00:21 25° NNE visible
31 Jan 8.6 19:40:29 10° NW 19:40:53 11° NW 19:40:53 11° NW visible
01 Feb 5.5 17:19:29 10° SSW 17:23:52 88° NW 17:27:39 14° NNE visible
01 Feb 8.1 19:05:05 10° WNW 19:07:41 15° NW 19:08:10 15° NNW visible
02 Feb 5.6 16:45:28 10° SSW 16:49:46 61° ESE 16:54:04 10° NE visible
02 Feb 7.8 18:30:02 10° W 18:33:17 20° NW 18:35:24 15° N visible
03 Feb 7.4 17:55:14 10° WSW 17:58:57 27° NW 18:02:34 11° NNE visible
04 Feb 6.8 17:20:37 10° WSW 17:24:40 37° NW 17:28:47 10° NNE visible
05 Feb 6.2 16:46:11 10° SW 16:50:27 54° NW 16:54:47 10° NNE visible
05 Feb 8.3 18:33:15 10° NW 18:34:39 11° NNW 18:36:04 10° N visible
06 Feb 8.1 17:57:45 10° WNW 18:00:11 15° NW 18:02:41 10° N visible
